User: anonymous   Login
Location: Enborne
(51.3833°N, 1.3667°W)
Time: 00:24:07
(UTC+00:00)
Language:

Okean 1-7 Rocket - Orbit

View from above orbital plane
View from above orbital plane
View from above satellite
View from above satellite

Ground track
Ground track

The orbit data is extracted from the following two-line orbital elements,

1 23318U 94066B   20336.52429852 +.00000121 +00000-0 +13096-4 0  9990
2 23318 082.5425 076.9349 0025039 063.6893 296.6888 14.78887416409113
Epoch (UTC): 01 December 2020 12:34:59
Eccentricity: 0.0025039
inclination: 82.5425°
perigee height: 615 km
apogee height: 650 km
right ascension of ascending node: 76.9349°
argument of perigee: 63.6893°
revolutions per day: 14.78887416
mean anomaly at epoch: 296.6888°
orbit number at epoch: 40911

The dashed part of the orbit path shows where the satellite is in the earth's shadow,  

DLR